Starlink 33911

operational
NORAD ID: 63777 Int'l Des: 2025-091 Owner: SPXS Country: US Constellation: starlink
LEOCIRCULAR

Über Starlink 33911

Beschreibung wird geladen...

Live-Position

3D-Globus wird geladen...

Nächste Überflüge

Höhenverlauf

Altitude vs Time

uPlot chart will show altitude changes over time

Zweizeiliger Elementsatz

1 63777U 25091C 25259.16831768 .00034446 00000-0 12538-2 0 9992
2 63777 43.0014 310.9802 0000529 246.2306 113.8490 15.27621938 22291
Epoch: 16. Sept. 2025 • Age: 8 hours

Aktueller Status

Höhe 485.4 km
Geschwindigkeit 7.62 km/s
Subsatellitenpunkt -13.53°S, 121.62°E
Startdatum 2. Mai 2025
Alter 0.3 years
Typ internet

Technische Details

Klassifizierung Payload
Masse 575.00 kg
Trockenmasse 530.00 kg
Gesamtmasse 575.00 kg
Länge 0.30 m
Durchmesser 4.10 m
Spannweite 29.00 m
Form Box + pan
Hersteller SPXS
Bus-Typ Starlink V2MO
Phasenstatus In Orbit
Besitzer/Staat SPXS/US

Große Konstellationen

Loading constellations...